Location: Unspecified
(0.0000°N, 0.0000°E)
Time: 02:22:08
(UTC+00:00)

Explorer 11/Cluster Stage 4 - All Passes

Search period start: 02 October 2014 00:00
Search period end: 12 October 2014 00:00
Orbit: 468 x 1283 km, 28.8° (Epoch: 30 September)

Date Brightness Start Highest point End Pass type
(mag) Time Alt. Az. Time Alt. Az. Time Alt. Az.
02 Oct - 00:27:59 10° SSW 00:33:20 18° SSE 00:38:32 10° ESE night (unlit)
02 Oct - 02:15:48 10° SW 02:23:46 49° SSE 02:30:47 10° ENE visible
02 Oct - 04:05:48 10° WSW 04:13:23 53° NNW 04:19:39 10° NE visible
02 Oct - 05:59:35 10° WNW 06:02:35 13° NNW 06:05:21 10° N daylight
02 Oct - 13:22:40 10° N 13:24:01 12° NNE 13:25:26 10° NE daylight
02 Oct - 15:08:30 10° WNW 15:12:25 90° NE 15:17:11 10° ESE daylight
02 Oct - 16:58:14 10° WSW 17:01:32 18° SSW 17:05:19 10° SSE daylight
03 Oct - 00:20:33 10° SSW 00:26:35 22° SSE 00:32:31 10° ESE night (unlit)
03 Oct - 02:08:38 10° SW 02:16:52 60° SSE 02:24:12 10° ENE visible
03 Oct - 03:59:01 10° WSW 04:06:28 44° NNW 04:12:45 10° NE visible
03 Oct - 05:54:03 10° NW 05:55:52 11° NNW 05:57:35 10° NNW daylight
03 Oct - 13:15:04 10° N 13:17:21 16° NNE 13:19:45 10° ENE daylight
03 Oct - 15:01:57 10° WNW 15:05:44 62° SSW 15:10:16 10° SE daylight
03 Oct - 16:52:38 10° SW 16:54:58 14° SSW 16:57:31 10° S daylight
04 Oct - 00:13:11 10° SSW 00:19:47 26° SSE 00:26:19 10° E night (unlit)
04 Oct - 02:01:32 10° SW 02:09:56 73° SSE 02:17:31 10° ENE visible
04 Oct - 03:52:19 10° W 03:59:32 37° NNW 04:05:46 10° NNE visible
04 Oct - 13:07:50 10° NNW 13:10:40 22° NNE 13:13:38 10° E daylight
04 Oct - 14:55:30 10° W 14:59:05 42° SSW 15:03:16 10° SE daylight
04 Oct - 22:20:53 10° S 22:22:16 11° SSE 22:23:40 10° SSE night (unlit)
05 Oct - 00:05:53 10° SSW 00:12:55 31° SSE 00:19:58 10° E night (unlit)
05 Oct - 01:54:29 10° WSW 02:02:57 86° SSE 02:10:43 10° ENE visible
05 Oct - 03:45:42 10° W 03:52:37 31° NNW 03:58:42 10° NNE visible
05 Oct - 13:00:46 10° NNW 13:03:59 30° NNE 13:07:19 10° E daylight
05 Oct - 14:49:09 10° W 14:52:27 29° SSW 14:56:09 10° SSE daylight
05 Oct - 22:12:40 10° S 22:15:36 12° SSE 22:18:38 10° SE night (unlit)
05 Oct - 23:58:40 10° SW 00:06:00 36° SSE 00:13:29 10° E night (unlit)
06 Oct - 01:47:31 10° WSW 01:55:57 80° NNW 02:03:51 10° NE visible
06 Oct - 03:39:12 10° W 03:45:42 26° NNW 03:51:34 10° NNE visible
06 Oct - 12:53:49 10° NW 12:57:18 44° NNE 13:00:50 10° ESE daylight
06 Oct - 14:42:59 10° WSW 14:45:49 20° SSW 14:48:53 10° SSE daylight
06 Oct - 22:05:00 10° S 22:08:52 14° SSE 22:12:56 10° SE night (unlit)
06 Oct - 23:51:30 10° SW 23:59:03 44° SSE 00:06:53 10° E night (unlit)
07 Oct - 01:40:37 10° WSW 01:48:56 67° NNW 01:56:52 10° NE visible
07 Oct - 03:32:50 10° WNW 03:38:49 22° NNW 03:44:20 10° NNE visible
07 Oct - 12:46:58 10° NW 12:50:37 69° NNE 12:54:14 10° ESE daylight
07 Oct - 14:37:05 10° WSW 14:39:11 14° SSW 14:41:23 10° S daylight
07 Oct - 21:57:33 10° S 22:02:05 17° SSE 22:06:56 10° ESE night (unlit)
07 Oct - 23:44:24 10° SW 23:52:03 52° SSE 00:00:09 10° ENE night (unlit)
08 Oct - 01:33:48 10° WSW 01:41:55 56° NNW 01:49:49 10° NE night (unlit)
08 Oct - 03:26:35 10° WNW 03:31:58 19° NNW 03:37:01 10° NNE visible
08 Oct - 10:53:02 10° N 10:55:16 14° NNE 10:57:21 10° ENE daylight
08 Oct - 12:40:11 10° WNW 12:43:55 78° SSW 12:47:32 10° SE daylight
08 Oct - 14:32:20 10° SSW 14:32:33 10° SSW 14:32:46 10° SSW daylight
08 Oct - 21:50:13 10° SSW 21:55:14 20° SSE 22:00:45 10° ESE night (unlit)
08 Oct - 23:37:21 10° SW 23:45:02 63° SSE 23:53:19 10° ENE night (unlit)
09 Oct - 01:27:04 10° W 01:34:54 46° NNW 01:42:41 10° NE night (unlit)
09 Oct - 03:20:30 10° WNW 03:25:09 16° NNW 03:29:35 10° N visible
09 Oct - 10:45:26 10° NNW 10:48:37 20° NNE 10:51:30 10° ENE daylight
09 Oct - 12:33:30 10° WNW 12:37:12 50° SSW 12:40:43 10° SE daylight
09 Oct - 21:42:58 10° SSW 21:48:21 24° SSE 21:54:23 10° E night (unlit)
09 Oct - 23:30:23 10° SW 23:37:59 75° SSE 23:46:23 10° ENE night (unlit)
10 Oct - 01:20:26 10° W 01:27:55 39° NNW 01:35:28 10° NE night (unlit)
10 Oct - 03:14:39 10° NW 03:18:22 14° NNW 03:21:59 10° N visible
10 Oct - 10:38:04 10° NNW 10:41:58 28° NNE 10:45:21 10° E daylight
10 Oct - 12:26:54 10° W 12:30:28 34° SSW 12:33:48 10° SE daylight
10 Oct - 21:35:47 10° SSW 21:41:25 28° SSE 21:47:52 10° E night (unlit)
10 Oct - 23:23:28 10° WSW 23:30:57 89° SSE 23:39:22 10° ENE night (unlit)
11 Oct - 01:13:54 10° W 01:20:57 32° NNW 01:28:10 10° NNE night (unlit)
11 Oct - 03:09:09 10° NW 03:11:38 12° NNW 03:14:05 10° N visible
11 Oct - 08:45:25 10° NNE 08:45:47 10° NNE 08:46:09 10° NNE daylight
11 Oct - 10:30:49 10° NW 10:35:16 40° NNE 10:39:00 10° E daylight
11 Oct - 12:20:25 10° W 12:23:43 25° SSW 12:26:46 10° SSE daylight
11 Oct - 21:28:40 10° SSW 21:34:27 33° SSE 21:41:14 10° E night (unlit)
11 Oct - 23:16:39 10° WSW 23:23:55 76° NNW 23:32:15 10° NE night (unlit)
